H1 CPF 2 NER 2021 6 10 9 161 01 glonass141 H2 1908801 9141 44850 2021 6 10 0 0 0 2021 6 13 23 45 0 900 1 1 0 0 0 1 H9 10 0 59375 0.00000 0 -12212370.593 531465.294 -22356818.099 10 0 59375 900.00000 0 -13815692.023 -1647799.163 -21348145.212 10 0 59375 1800.00000 0 -15479667.380 -3587275.220 -19923603.764 10 0 59375 2700.00000 0 -17145333.677 -5253392.833 -18111021.084 10 0 59375 3600.00000 0 -18750117.788 -6624743.602 -15945786.392 10 0 59375 4500.00000 0 -20230430.660 -7692710.246 -13470150.523 10 0 59375 5400.00000 0 -21524321.877 -8461554.679 -10732391.193 10 0 59375 6300.00000 0 -22574082.371 -8947962.966 -7785860.848 10 0 59375 7200.00000 0 -23328685.277 -9180068.645 -4687936.681 10 0 59375 8100.00000 0 -23745962.059 -9195998.053 -1498894.196 10 0 59375 9000.00000 0 -23794422.457 -9042001.366 1719272.804 10 0 59375 9900.00000 0 -23454642.083 -8770250.351 4904061.924 10 0 59375 10800.00000 0 -22720160.065 -8436397.617 7993677.458 10 0 59375 11700.00000 0 -21597849.918 -8097001.718 10928227.327 10 0 59375 12600.00000 0 -20107749.076 -7806927.611 13650878.373 10 0 59375 13500.00000 0 -18282355.193 -7616832.374 16108948.095 10 0 59375 14400.00000 0 -16165419.368 -7570841.989 18254912.481 10 0 59375 15300.00000 0 -13810287.155 -7704516.401 20047311.552 10 0 59375 16200.00000 0 -11277856.485 -8043187.691 21451536.529 10 0 59375 17100.00000 0 -8634236.972 -8600740.361 22440484.944 10 0 59375 18000.00000 0 -5948206.922 -9378884.236 22995072.482 10 0 59375 18900.00000 0 -3288572.159 -10366950.174 23104592.992 10 0 59375 19800.00000 0 -721534.373 -11542217.259 22766920.712 10 0 59375 20700.00000 0 1691823.761 -12870758.388 21988551.277 10 0 59375 21600.00000 0 3897834.505 -14308770.045 20784480.836 10 0 59375 22500.00000 0 5852228.603 -15804332.159 19177925.065 10 0 59375 23400.00000 0 7521725.649 -17299526.189 17199882.661 10 0 59375 24300.00000 0 8885166.314 -18732824.675 14888550.412 10 0 59375 25200.00000 0 9934140.106 -20041653.893 12288599.656 10 0 59375 26100.00000 0 10673082.694 -21165023.576 9450326.559 10 0 59375 27000.00000 0 11118838.765 -22046114.269 6428691.185 10 0 59375 27900.00000 0 11299708.478 -22634713.984 3282262.632 10 0 59375 28800.00000 0 11254017.107 -22889401.357 72089.869 10 0 59375 29700.00000 0 11028267.781 -22779382.560 -3139480.391 10 0 59375 30600.00000 0 10674954.964 -22285903.174 -6290015.938 10 0 59375 31500.00000 0 10250131.056 -21403173.749 -9318217.455 10 0 59375 32400.00000 0 9810829.347 -20138768.075 -12165118.770 10 0 59375 33300.00000 0 9412453.089 -18513475.293 -14775244.695 10 0 59375 34200.00000 0 9106242.170 -16560610.220 -17097702.802 10 0 59375 35100.00000 0 8936925.928 -14324809.207 -19087186.829 10 0 59375 36000.00000 0 8940662.855 -11860360.785 -20704871.149 10 0 59375 36900.00000 0 9143355.817 -9229140.308 -21919177.911 10 0 59375 37800.00000 0 9559415.471 -6498234.575 -22706401.219 10 0 59375 38700.00000 0 10191025.404 -3737355.628 -23051175.629 10 0 59375 39600.00000 0 11027941.050 -1016151.965 -22946779.451 10 0 59375 40500.00000 0 12047831.666 1598470.358 -22395266.800 10 0 59375 41400.00000 0 13217151.371 4044904.824 -21407425.758 10 0 59375 42300.00000 0 14492502.653 6269172.870 -20002563.619 10 0 59375 43200.00000 0 15822434.656 8226926.755 -18208123.656 10 0 59375 44100.00000 0 17149600.056 9885043.871 -16059141.264 10 0 59375 45000.00000 0 18413178.924 11222746.795 -13597550.682 10 0 59375 45900.00000 0 19551466.705 12232203.780 -10871356.470 10 0 59375 46800.00000 0 20504516.455 12918586.398 -7933686.715 10 0 59375 47700.00000 0 21216723.291 13299584.139 -4841747.386 10 0 59375 48600.00000 0 21639241.664 13404398.791 -1655699.186 10 0 59375 49500.00000 0 21732133.356 13272263.451 1562520.332 10 0 59375 50400.00000 0 21466155.828 12950550.825 4750405.524 10 0 59375 51300.00000 0 20824115.975 12492552.689 7846098.170 10 0 59375 52200.00000 0 19801732.974 11955025.760 10789585.845 10 0 59375 53100.00000 0 18407974.721 11395608.554 13523859.763 10 0 59375 54000.00000 0 16664854.499 10870218.686 15996010.133 10 0 59375 54900.00000 0 14606696.982 10430540.230 18158238.582 10 0 59375 55800.00000 0 12278904.669 10121706.391 19968769.141 10 0 59375 56700.00000 0 9736276.160 9980274.113 21392641.592 10 0 59375 57600.00000 0 7040945.806 10032574.679 22402373.361 10 0 59375 58500.00000 0 4260029.507 10293508.513 22978478.614 10 0 59375 59400.00000 0 1463072.967 10765833.934 23109835.882 10 0 59375 60300.00000 0 -1280593.567 11439979.233 22793898.107 10 0 59375 61200.00000 0 -3904486.326 12294385.976 22036741.568 10 0 59375 62100.00000 0 -6347477.886 13296369.726 20852952.888 10 0 59375 63000.00000 0 -8556083.823 14403463.182 19265355.789 10 0 59375 63900.00000 0 -10486432.906 15565186.891 17304582.026 10 0 59375 64800.00000 0 -12105840.411 16725174.937 15008493.510 10 0 59375 65700.00000 0 -13393920.011 17823568.134 12421465.244 10 0 59375 66600.00000 0 -14343188.306 18799575.671 9593541.433 10 0 59375 67500.00000 0 -14959136.844 19594098.666 6579479.541 10 0 59375 68400.00000 0 -15259768.388 20152305.840 3437699.528 10 0 59375 69300.00000 0 -15274616.390 20426052.788 229157.750 10 0 59375 70200.00000 0 -15043288.468 20376042.252 -2983833.187 10 0 59375 71100.00000 0 -14613594.827 19973633.078 -6138815.838 10 0 59375 72000.00000 0 -14039340.356 19202219.826 -9174406.652 10 0 59375 72900.00000 0 -13377873.797 18058122.854 -12031497.710 10 0 59375 73800.00000 0 -12687497.957 16550949.124 -14654417.223 10 0 59375 74700.00000 0 -12024851.232 14703406.410 -16992025.056 10 0 59375 75600.00000 0 -11442372.169 12550576.713 -18998720.909 10 0 59375 76500.00000 0 -10985955.462 10138677.688 -20635344.507 10 0 59375 77400.00000 0 -10692899.718 7523362.802 -21869949.286 10 0 59375 78300.00000 0 -10590234.924 4767630.532 -22678433.796 10 0 59375 79200.00000 0 -10693501.354 1939429.540 -23045017.976 10 0 59375 80100.00000 0 -11006032.293 -890940.188 -22962554.607 10 0 59375 81000.00000 0 -11518771.464 -3653521.689 -22432669.737 10 0 59375 81900.00000 0 -12210633.104 -6281378.341 -21465729.287 10 0 59375 82800.00000 0 -13049389.444 -8713142.239 -20080632.621 10 0 59375 83700.00000 0 -13993047.800 -10895327.406 -18304437.372 10 0 59375 84600.00000 0 -14991658.553 -12784311.672 -16171823.218 10 0 59375 85500.00000 0 -15989476.903 -14347905.015 -13724405.633 10 0 59376 0.00000 0 -16927386.261 -15566440.042 -11009913.729 10 0 59376 900.00000 0 -17745479.846 -16433340.316 -8081248.618 10 0 59376 1800.00000 0 -18385691.139 -16955145.141 -4995442.552 10 0 59376 2700.00000 0 -18794360.387 -17150991.021 -1812538.850 10 0 59376 3600.00000 0 -18924629.563 -17051575.178 1405583.767 10 0 59376 4500.00000 0 -18738563.583 -16697646.163 4596418.970 10 0 59376 5400.00000 0 -18208908.886 -16138087.793 7698048.565 10 0 59376 6300.00000 0 -17320415.500 -15427678.809 10650342.266 10 0 59376 7200.00000 0 -16070667.531 -14624624.059 13396118.057 10 0 59376 8100.00000 0 -14470387.782 -13787961.956 15882241.107 10 0 59376 9000.00000 0 -12543204.208 -12974957.574 18060640.718 10 0 59376 9900.00000 0 -10324888.351 -12238590.667 19889226.686 10 0 59376 10800.00000 0 -7862097.504 -11625243.367 21332688.765 10 0 59376 11700.00000 0 -5210672.568 -11172683.497 22363165.308 10 0 59376 12600.00000 0 -2433561.586 -10908426.855 22960769.606 10 0 59376 13500.00000 0 401546.166 -10848545.890 23113965.123 10 0 59376 14400.00000 0 3224779.124 -10996973.738 22819783.375 10 0 59376 15300.00000 0 5966731.253 -11345332.234 22083880.831 10 0 59376 16200.00000 0 8561091.129 -11873291.009 20920433.821 10 0 59376 17100.00000 0 10947145.396 -12549443.122 19351873.059 10 0 59376 18000.00000 0 13072054.525 -13332661.398 17408462.043 10 0 59376 18900.00000 0 14892807.883 -14173879.887 15127726.204 10 0 59376 19800.00000 0 16377777.921 -15018227.036 12553742.334 10 0 59376 20700.00000 0 17507809.232 -15807422.343 9736300.490 10 0 59376 21600.00000 0 18276797.195 -16482336.811 6729953.080 10 0 59376 22500.00000 0 18691731.788 -16985610.111 3592968.206 10 0 59376 23400.00000 0 18772204.187 -17264214.343 386206.706 10 0 59376 24300.00000 0 18549396.292 -17271855.858 -2828055.940 10 0 59376 25200.00000 0 18064595.118 -16971112.737 -5987340.084 10 0 59376 26100.00000 0 17367294.171 -16335216.169 -9030180.888 10 0 59376 27000.00000 0 16512961.753 -15349398.588 -11897331.496 10 0 59376 27900.00000 0 15560570.519 -14011749.424 -14532926.120 10 0 59376 28800.00000 0 14569993.071 -12333540.116 -16885579.268 10 0 59376 29700.00000 0 13599374.345 -10339002.447 -18909398.675 10 0 59376 30600.00000 0 12702592.675 -8064567.457 -20564891.181 10 0 59376 31500.00000 0 11926917.832 -5557595.294 -21819742.908 10 0 59376 32400.00000 0 11310965.877 -2874647.912 -22649457.870 10 0 59376 33300.00000 0 10883038.051 -79376.053 -23037841.985 10 0 59376 34200.00000 0 10659914.473 2759891.531 -22977322.683 10 0 59376 35100.00000 0 10646153.913 5572756.149 -22469097.701 10 0 59376 36000.00000 0 10833929.257 8289445.624 -21523110.148 10 0 59376 36900.00000 0 11203405.359 10843486.444 -20157850.419 10 0 59376 37800.00000 0 11723642.762 13174240.048 -18399989.111 10 0 59376 38700.00000 0 12353988.324 15229197.528 -16283848.434 10 0 59376 39600.00000 0 13045892.984 16965937.201 -13850723.011 10 0 59376 40500.00000 0 13745078.718 18353664.003 -11148063.965 10 0 59376 41400.00000 0 14393961.917 19374267.476 -8228542.962 10 0 59376 42300.00000 0 14934229.618 20022855.495 -5149015.444 10 0 59376 43200.00000 0 15309458.673 20307743.331 -1969404.176 10 0 59376 44100.00000 0 15467666.411 20249900.662 1248474.231 10 0 59376 45000.00000 0 15363684.525 19881882.003 4442116.039 10 0 59376 45900.00000 0 14961255.787 19246287.785 7549546.271 10 0 59376 46800.00000 0 14234765.232 18393822.788 10510519.768 10 0 59376 47700.00000 0 13170533.213 17381035.178 13267684.015 10 0 59376 48600.00000 0 11767616.400 16267832.335 15767681.559 10 0 59376 49500.00000 0 10038083.455 15114878.366 17962171.458 10 0 59376 50400.00000 0 8006754.186 13980982.502 19808751.004 10 0 59376 51300.00000 0 5710413.082 12920587.335 21271761.288 10 0 59376 52200.00000 0 3196529.622 11981461.077 22322962.575 10 0 59376 53100.00000 0 521537.938 11202689.203 22942067.857 10 0 59376 54000.00000 0 -2251253.933 10613048.045 23117125.670 10 0 59376 54900.00000 0 -5054040.085 10229827.061 22844745.790 10 0 59376 55800.00000 0 -7817081.361 10058147.990 22130164.053 10 0 59376 56700.00000 0 -10471354.395 10090808.708 20987145.174 10 0 59376 57600.00000 0 -12951177.349 10308658.169 19437725.044 10 0 59376 58500.00000 0 -15196705.292 10681487.055 17511796.615 10 0 59376 59400.00000 0 -17156193.278 11169397.544 15246546.175 10 0 59376 60300.00000 0 -18787934.212 11724595.755 12685749.337 10 0 59376 61200.00000 0 -20061791.438 12293532.703 9878938.869 10 0 59376 62100.00000 0 -20960262.345 12819304.738 6880458.898 10 0 59376 63000.00000 0 -21479028.307 13244213.175 3748422.476 10 0 59376 63900.00000 0 -21626967.285 13512375.507 543591.834 10 0 59376 64800.00000 0 -21425627.869 13572277.830 -2671797.615 10 0 59376 65700.00000 0 -20908186.018 13379159.902 -5835246.786 10 0 59376 66600.00000 0 -20117927.720 12897130.773 -8885212.117 10 0 59376 67500.00000 0 -19106321.015 12100923.814 -11762310.152 10 0 59376 68400.00000 0 -17930758.488 10977214.864 -14410483.178 10 0 59376 69300.00000 0 -16652065.603 9525445.572 -16778102.122 10 0 59376 70200.00000 0 -15331880.426 7758114.853 -18818984.183 10 0 59376 71100.00000 0 -14030015.951 5700523.912 -20493304.357 10 0 59376 72000.00000 0 -12801917.084 3389983.636 -21768382.110 10 0 59376 72900.00000 0 -11696320.334 874515.981 -22619327.172 10 0 59376 73800.00000 0 -10753215.587 -1788897.477 -23029531.313 10 0 59376 74700.00000 0 -10002196.413 -4536447.241 -22990996.095 10 0 59376 75600.00000 0 -9461268.664 -7299919.173 -22504490.079 10 0 59376 76500.00000 0 -9136167.517 -10009308.275 -21579532.351 10 0 59376 77400.00000 0 -9020211.311 -12595513.689 -20234202.819 10 0 59376 78300.00000 0 -9094697.613 -14993002.291 -18494783.234 10 0 59376 79200.00000 0 -9329823.732 -17142329.593 -16395236.302 10 0 59376 80100.00000 0 -9686091.566 -18992412.671 -13976533.578 10 0 59376 81000.00000 0 -10116135.986 -20502460.496 -11285845.931 10 0 59376 81900.00000 0 -10566898.006 -21643481.653 -8375613.088 10 0 59376 82800.00000 0 -10982049.415 -22399307.369 -5302511.365 10 0 59376 83700.00000 0 -11304564.984 -22767088.498 -2126340.633 10 0 59376 84600.00000 0 -11479332.397 -22757247.424 1091146.903 10 0 59376 85500.00000 0 -11455688.725 -22392888.901 4287452.352 10 0 59377 0.00000 0 -11189775.856 -21708696.722 7400546.102 10 0 59377 900.00000 0 -10646614.830 -20749364.433 10370070.429 10 0 59377 1800.00000 0 -9801812.981 -19567627.963 13138504.394 10 0 59377 2700.00000 0 -8642830.197 -18221983.833 15652269.951 10 0 59377 3600.00000 0 -7169753.634 -16774189.568 17862757.811 10 0 59377 4500.00000 0 -5395547.204 -15286651.313 19727254.442 10 0 59377 5400.00000 0 -3345766.131 -13819807.621 21209753.700 10 0 59377 6300.00000 0 -1057748.030 -12429617.952 22281638.879 10 0 59377 7200.00000 0 1420686.351 -11165259.597 22922223.455 10 0 59377 8100.00000 0 4032969.735 -10067127.679 23119141.478 10 0 59377 9000.00000 0 6715891.691 -9165220.142 22868581.078 10 0 59377 9900.00000 0 9401983.206 -8477973.748 22175357.229 10 0 59377 10800.00000 0 12022085.627 -8011598.538 21052822.495 10 0 59377 11700.00000 0 14507999.548 -7759937.857 19522617.110 10 0 59377 12600.00000 0 16795105.613 -7704859.555 17614262.371 10 0 59377 13500.00000 0 18824850.155 -7817162.220 15364604.010 10 0 59377 14400.00000 0 20546993.608 -8057959.006 12817114.745 10 0 59377 15300.00000 0 21921528.802 -8380481.806 10021068.018 10 0 59377 16200.00000 0 22920189.411 -8732230.774 7030597.318 10 0 59377 17100.00000 0 23527485.327 -9057379.402 3903657.994 10 0 59377 18000.00000 0 23741220.925 -9299334.213 700910.748 10 0 59377 18900.00000 0 23572473.628 -9403341.011 -2515452.151 10 0 59377 19800.00000 0 23045032.649 -9319027.053 -5682915.328 10 0 59377 20700.00000 0 22194320.506 -9002770.669 -8739859.604 10 0 59377 21600.00000 0 21065841.927 -8419796.570 -11626767.868 10 0 59377 22500.00000 0 19713224.888 -7545906.332 -14287393.205 10 0 59377 23400.00000 0 18195936.130 -6368768.752 -16669865.401 10 0 59377 24300.00000 0 16576767.522 -4888713.219 -18727713.252 10 0 59377 25200.00000 0 14919199.518 -3118990.341 -20420781.723 10 0 59377 26100.00000 0 13284753.364 -1085486.710 -21716025.097 10 0 59377 27000.00000 0 11730444.190 1174096.063 -22588159.955 10 0 59377 27900.00000 0 10306442.751 3611565.130 -23020164.676 10 0 59377 28800.00000 0 9054044.712 6170008.528 -23003615.347 10 0 59377 29700.00000 0 8004033.087 8785942.163 -22538851.350 10 0 59377 30600.00000 0 7175502.571 11391742.194 -21634967.348 10 0 59377 31500.00000 0 6575194.801 13918261.086 -20309631.962 10 0 59377 32400.00000 0 6197371.620 16297517.908 -18588736.915 10 0 59377 33300.00000 0 6024230.493 18465350.247 -16505883.832 10 0 59377 34200.00000 0 6026843.081 20363916.660 -14101719.256 10 0 59377 35100.00000 0 6166575.671 21943945.088 -11423131.488 10 0 59377 36000.00000 0 6396929.683 23166633.426 -8522325.657 10 0 59377 36900.00000 0 6665722.701 24005123.306 -5455795.998 10 0 59377 37800.00000 0 6917516.161 24445486.350 -2283216.295 10 0 59377 38700.00000 0 7096185.530 24487182.961 933728.996 10 0 59377 39600.00000 0 7147523.178 24142976.040 4132549.244 10 0 59377 40500.00000 0 7021763.077 23438305.108 7251163.680 10 0 59377 41400.00000 0 6675920.216 22410148.978 10229104.989 10 0 59377 42300.00000 0 6075845.943 21105426.387 13008686.887 10 0 59377 43200.00000 0 5197912.723 19579003.072 15536113.453 10 0 59377 44100.00000 0 4030257.748 17891389.730 17762509.413 10 0 59377 45000.00000 0 2573533.505 16106227.655 19644852.432 10 0 59377 45900.00000 0 841134.007 14287666.999 21146790.769 10 0 59377 46800.00000 0 -1141112.856 12497746.442 22239331.990 10 0 59377 47700.00000 0 -3335774.439 10793882.415 22901390.873 10 0 59377 48600.00000 0 -5695130.251 9226571.039 23120187.326 10 0 59377 49500.00000 0 -8162923.244 7837396.814 22891487.695 10 0 59377 50400.00000 0 -10676474.263 6657429.378 22219685.420 10 0 59377 51300.00000 0 -13169073.869 5706073.659 21117719.692 10 0 59377 52200.00000 0 -15572554.293 4990420.162 19606833.308 10 0 59377 53100.00000 0 -17819936.651 4505121.861 17716173.614 10 0 59377 54000.00000 0 -19848045.240 4232802.493 15482243.015 10 0 59377 54900.00000 0 -21599981.577 4144979.319 12948208.194 10 0 59377 55800.00000 0 -23027355.965 4203462.160 10163079.852 10 0 59377 56700.00000 0 -24092183.898 4362170.513 7180777.282 10 0 59377 57600.00000 0 -24768367.874 4569292.976 4059094.541 10 0 59377 58500.00000 0 -25042701.898 4769698.409 858587.296 10 0 59377 59400.00000 0 -24915355.585 4907497.243 -2358598.684 10 0 59377 60300.00000 0 -24399816.303 4928644.417 -5529934.878 10 0 59377 61200.00000 0 -23522290.498 4783473.125 -8593729.390 10 0 59377 62100.00000 0 -22320588.277 4429050.942 -11490334.087 10 0 59377 63000.00000 0 -20842537.188 3831256.948 -14163315.169 10 0 59377 63900.00000 0 -19143991.448 2966490.043 -16560563.243 10 0 59377 64800.00000 0 -17286520.087 1822934.025 -18635320.246 10 0 59377 65700.00000 0 -15334871.355 401323.741 -20347102.193 10 0 59377 66600.00000 0 -13354320.391 -1284822.149 -21662498.758 10 0 59377 67500.00000 0 -11408012.082 -3209513.595 -22555833.421 10 0 59377 68400.00000 0 -9554411.255 -5335135.321 -23009670.716 10 0 59377 69300.00000 0 -7844967.730 -7613792.462 -23015160.315 10 0 59377 70200.00000 0 -6322094.471 -9989100.143 -22572211.050 10 0 59377 71100.00000 0 -5017543.583 -12398342.562 -21689491.427 10 0 59377 72000.00000 0 -3951247.962 -14774911.261 -20384256.748 10 0 59377 72900.00000 0 -3130676.379 -17050920.472 -18682006.433 10 0 59377 73800.00000 0 -2550727.835 -19159889.844 -16615978.584 10 0 59377 74700.00000 0 -2194168.117 -21039381.893 -14226492.191 10 0 59377 75600.00000 0 -2032588.249 -22633483.591 -11560150.418 10 0 59377 76500.00000 0 -2027842.422 -23895028.063 -8668921.254 10 0 59377 77400.00000 0 -2133902.640 -24787463.546 -5609114.389 10 0 59377 78300.00000 0 -2299049.740 -25286291.796 -2440275.158 10 0 59377 79200.00000 0 -2468306.344 -25380016.588 775981.977 10 0 59377 80100.00000 0 -2586007.400 -25070563.723 3977176.762 10 0 59377 81000.00000 0 -2598398.486 -24373156.448 7101179.236 10 0 59377 81900.00000 0 -2456151.307 -23315653.119 10087414.529 10 0 59377 82800.00000 0 -2116689.885 -21937376.475 12878032.797 10 0 59377 83700.00000 0 -1546229.308 -20287484.963 15419021.942 10 0 59377 84600.00000 0 -721441.422 -18422955.302 17661242.266 10 0 59377 85500.00000 0 369322.174 -16406261.231 19561363.993 10 0 59378 0.00000 0 1725300.763 -14302845.402 21082690.890 10 0 59378 900.00000 0 3333119.675 -12178489.252 22195855.695 10 0 59378 1800.00000 0 5167117.439 -10096689.321 22879375.025 10 0 59378 2700.00000 0 7190193.808 -8116148.217 23120054.895 10 0 59378 3600.00000 0 9355142.538 -6288482.005 22913239.814 10 0 59378 4500.00000 0 11606415.965 -4656238.372 22262901.354 10 0 59378 5400.00000 0 13882249.336 -3251305.823 21181564.736 10 0 59378 6300.00000 0 16117058.710 -2093778.739 19690074.483 10 0 59378 7200.00000 0 18244014.603 -1191324.478 17817202.900 10 0 59378 8100.00000 0 20197686.204 -539078.220 15599107.752 10 0 59378 9000.00000 0 21916647.575 -120069.639 13078648.114 10 0 59378 9900.00000 0 23345938.186 93836.245 10304570.114 10 0 59378 10800.00000 0 24439275.588 140523.219 7330576.747 10 0 59378 11700.00000 0 25160927.672 65791.997 4214298.400 10 0 59378 12600.00000 0 25487165.425 -78810.999 1016183.099 10 0 59378 13500.00000 0 25407234.272 -238412.848 -2201672.688 10 0 59378 14400.00000 0 24923801.848 -357379.063 -5376730.181 10 0 59378 15300.00000 0 24052861.854 -381915.323 -8447227.651 10 0 59378 16200.00000 0 22823096.593 -262594.958 -11353388.719 10 0 59378 17100.00000 0 21274723.649 43296.151 -14038595.286 10 0 59378 18000.00000 0 19457874.239 569698.196 -16450501.117 10 0 59378 18900.00000 0 17430570.720 1340088.765 -18542063.361 10 0 59378 19800.00000 0 15256387.957 2366240.369 -20272470.875 10 0 59378 20700.00000 0 13001896.804 3647478.687 -21607950.253 10 0 59378 21600.00000 0 10733997.266 5170474.795 -22522433.136 10 0 59378 22500.00000 0 8517253.536 6909581.882 -22998071.207 10 0 59378 23400.00000 0 6411343.077 8827703.628 -23025588.418 10 0 59378 24300.00000 0 4468726.852 10877658.811 -22604463.427 10 0 59378 25200.00000 0 2732638.306 13003985.505 -21742938.599 10 0 59378 26100.00000 0 1235475.078 15145109.416 -20457855.535 10 0 59378 27000.00000 0 -2339.888 17235785.396 -18774320.566 10 0 59378 27900.00000 0 -972981.246 19209709.554 -16725207.076 10 0 59378 28800.00000 0 -1681303.473 21002191.981 -14350504.878 10 0 59378 29700.00000 0 -2144380.915 22552777.656 -11696529.988 10 0 59378 30600.00000 0 -2390527.135 23807705.283 -8815010.859 10 0 59378 31500.00000 0 -2457837.116 24722100.733 -5762069.911 10 0 59378 32400.00000 0 -2392316.132 25261813.260 -2597121.035 10 0 59378 33300.00000 0 -2245676.376 25404817.860 618294.507 10 0 59378 34200.00000 0 -2072896.306 25142125.764 3821710.161 10 0 59378 35100.00000 0 -1929647.328 24478165.929 6950950.130 10 0 59378 36000.00000 0 -1869697.611 23430622.840 9945335.289 10 0 59378 36900.00000 0 -1942403.250 22029738.787 12746855.388 10 0 59378 37800.00000 0 -2190392.825 20317111.107 15301285.113 10 0 59378 38700.00000 0 -2647542.751 18344035.688 17559223.042 10 0 59378 39600.00000 0 -3337328.209 16169466.634 19477034.369 10 0 59378 40500.00000 0 -4271618.474 13857677.323 21017680.491 10 0 59378 41400.00000 0 -5449966.798 11475719.890 22151420.934 10 0 59378 42300.00000 0 -6859424.393 9090787.997 22856375.488 10 0 59378 43200.00000 0 -8474886.555 6767591.102 23118937.141 10 0 59378 44100.00000 0 -10259957.149 4565847.567 22934028.905 10 0 59378 45000.00000 0 -12168296.479 2537998.888 22305200.281 10 0 59378 45900.00000 0 -14145397.923 727238.033 21244561.730 10 0 59378 46800.00000 0 -16130721.133 -834067.924 19772558.111 10 0 59378 47700.00000 0 -18060094.844 -2125496.625 17917584.714 10 0 59378 48600.00000 0 -19868291.036 -3139185.200 15715452.140 10 0 59378 49500.00000 0 -21491664.779 -3879915.910 13208708.857 10 0 59378 50400.00000 0 -22870750.697 -4364669.249 10445833.038 10 0 59378 51300.00000 0 -23952708.286 -4621663.076 7480307.732 10 0 59378 52200.00000 0 -24693513.830 -4688917.791 4369595.867 10 0 59378 53100.00000 0 -25059806.544 -4612407.430 1174034.000 10 0 59378 54000.00000 0 -25030310.478 -4443874.321 -2044334.452 10 0 59378 54900.00000 0 -24596771.051 -4238399.456 -5222964.066 10 0 59378 55800.00000 0 -23764365.124 -4051831.486 -8300026.677 10 0 59378 56700.00000 0 -22551565.658 -3938183.776 -11215620.810 10 0 59378 57600.00000 0 -20989464.928 -3947110.734 -13912946.895 10 0 59378 58500.00000 0 -19120583.364 -4121571.628 -16339424.310 10 0 59378 59400.00000 0 -16997212.954 -4495782.470 -18447727.415 10 0 59378 60300.00000 0 -14679364.053 -5093544.440 -20196719.384 10 0 59378 61200.00000 0 -12232401.428 -5927021.415 -21552264.618 10 0 59378 62100.00000 0 -9724468.622 -6996020.021 -22487903.174 10 0 59378 63000.00000 0 -7223808.674 -8287804.262 -22985373.502 10 0 59378 63900.00000 0 -4796093.703 -9777453.883 -23034972.863 10 0 59378 64800.00000 0 -2501875.295 -11428752.417 -22635748.224 10 0 59378 65700.00000 0 -394262.403 -13195568.307 -21795513.845 10 0 59378 66600.00000 0 1483076.201 -15023671.273 -20530695.311 10 0 59378 67500.00000 0 3097501.951 -16852907.686 -18866003.280 10 0 59378 68400.00000 0 4428523.343 -18619643.247 -16833943.642 10 0 59378 69300.00000 0 5468394.150 -20259369.909 -14474174.160 10 0 59378 70200.00000 0 6222169.696 -21709366.981 -11832720.758 10 0 59378 71100.00000 0 6707220.918 -22911304.101 -8961069.436 10 0 59378 72000.00000 0 6952228.956 -23813676.253 -5915152.468 10 0 59378 72900.00000 0 6995705.014 -24373968.346 -2754249.518 10 0 59378 73800.00000 0 6884100.299 -24560458.466 460173.994 10 0 59378 74700.00000 0 6669587.880 -24353584.444 3665667.709 10 0 59378 75600.00000 0 6407611.989 -23746817.060 6800012.290 10 0 59378 76500.00000 0 6154309.604 -22747004.161 9802426.457 10 0 59378 77400.00000 0 5963914.072 -21374172.366 12614741.433 10 0 59378 78300.00000 0 5886250.715 -19660795.718 15182520.310 10 0 59378 79200.00000 0 5964429.930 -17650562.791 17456101.305 10 0 59378 80100.00000 0 6232834.513 -15396694.392 19391545.646 10 0 59378 81000.00000 0 6715485.235 -12959882.229 20951473.091 10 0 59378 81900.00000 0 7424852.650 -10405934.009 22105770.421 10 0 59378 82800.00000 0 8361164.440 -7803222.184 22832160.682 10 0 59378 83700.00000 0 9512237.103 -5220040.985 23116623.609 10 0 59378 84600.00000 0 10853839.226 -2721979.711 22953660.216 10 0 59378 85500.00000 0 12350571.836 -369419.416 22346397.169 99